Regional Weather Roundup
Issued by NWS

Home | Current Version | Previous Version | Graphics & Text | Print | Product List | Glossary On
Versions: 1 2 3 4 5 6 7 8 9 10 11 12 13 14 15 16 17 18 19 20 21 22 23 24 25 26 27 28 29 30 31 32 33 34 35 36 37 38 39 40 41 42 43 44 45 46 47 48 49 50
899
ASUS43 KOAX 261302
RWRNE

WEATHER ROUNDUP FOR NEBRASKA
NATIONAL WEATHER SERVICE OMAHA NE
800 AM CDT WED APR 26 2017

NOTES: SATELLITE DATA IS BEING USED TO AUGMENT CLOUD COVER ABOVE
       12000 FEET.
       "FAIR" INDICATES FEW OR NO CLOUDS BELOW 12,000 FEET WITH NO
       SIGNIFICANT WEATHER AND/OR OBSTRUCTIONS TO VISIBILITY.

  * THESE STATIONS DO NOT REPORT WEATHER SUCH AS RAIN...SNOW OR FOG.

NEZ001>004-019>022-054>056-261400-
NEBRASKA PANHANDLE

CITY           SKY/WX    TMP DP  RH WIND       PRES   REMARKS
SCOTTSBLUFF    SUNNY     32  26  78 N10       29.85S WCI  24
ALLIANCE       CLOUDY    29  25  85 NW15      29.82S WCI  18
CHADRON        CLOUDY    29  26  89 NE7       29.88R FOG     WCI  22
KIMBALL        SUNNY     31  30  96 NW10      29.81S WCI  22
SIDNEY         MOSUNNY   31  26  82 N17       29.82R WCI  19
$$

NEZ057>060-069>072-079>082-261400-
SOUTHWEST NEBRASKA

CITY           SKY/WX    TMP DP  RH WIND       PRES   REMARKS
NORTH PLATTE   CLOUDY    33  26  75 N15       29.81S WCI  23
IMPERIAL       CLOUDY    31  25  78 NW15      29.83S WCI  20
LEXINGTON      CLOUDY    34  27  77 NW18G26   29.77F WCI  23
MCCOOK         CLOUDY    33  25  72 NW14      29.81R WCI  23
OGALLALA       CLOUDY    33  27  77 N18       29.83S WCI  22
$$

NEZ005>010-023>029-035>040-094-261400-
NORTH CENTRAL NEBRASKA

CITY           SKY/WX    TMP DP  RH WIND       PRES   REMARKS
VALENTINE      CLOUDY    32  26  78 NW22      29.82S WCI  19
AINSWORTH      CLOUDY    31  29  89 NW18G31   29.80R WCI  20
BROKEN BOW     CLOUDY    33  26  75 N25G32    29.76S WCI  20
O`NEILL        CLOUDY    33  29  87 NW18G29   29.75F WCI  21
ORD            CLOUDY    33  27  78 NW20G26   29.75S WCI  21
THEDFORD       CLOUDY    32  28  83 NW18G24   29.81R WCI  20
$$

NEZ041-046>049-061>064-073>077-083>087-261400-
SOUTH CENTRAL NEBRASKA

CITY           SKY/WX    TMP DP  RH WIND       PRES   REMARKS
GRAND ISLAND   CLOUDY    34  30  85 NW18G28   29.74S WCI  23
AURORA         CLOUDY    35  31  84 NW24      29.72R WCI  23
HASTINGS       CLOUDY    35  28  75 NW25G31   29.74R WCI  23
HEBRON         CLOUDY    37  30  76 NW15G25   29.73R WCI  28
HOLDREGE       CLOUDY    34  27  75 N15G23    29.76R WCI  24
KEARNEY *      CLOUDY    36  25  64 NW21G28   29.76R WCI  24
YORK           CLOUDY    36  32  87 NW22G33   29.70S WCI  24
$$

NEZ011>018-030>034-042>045-261400-
NORTHEAST NEBRASKA

CITY           SKY/WX    TMP DP  RH WIND       PRES   REMARKS
NORFOLK        CLOUDY    33  28  81 NW20G30   29.69S WCI  21
ALBION         CLOUDY    35  29  81 NW23G29   29.71S WCI  23
BLAIR          CLOUDY    36  33  88 NW20      29.65R WCI  25
FREMONT        CLOUDY    36  32  87 NW23      29.68S WCI  24
TEKAMAH        CLOUDY    36  32  85 NW24      29.67R WCI  24
WAYNE          CLOUDY    34  32  93 NW20G28   29.69R WCI  23
$$

NEZ050>053-065>068-078-088>093-261400-
SOUTHEAST NEBRASKA

CITY           SKY/WX    TMP DP  RH WIND       PRES   REMARKS
LINCOLN        CLOUDY    38  30  73 N21G31    29.69S WCI  28
OMAHA EPPLEY   CLOUDY    37  32  82 NW18G26   29.66R WCI  27
BEATRICE       CLOUDY    38  33  82 NW18      29.70R WCI  28
FALLS CITY     CLOUDY    39  35  86 NW10      29.68R WCI  32
NEBRASKA CITY  CLOUDY    38  32  79 NW22G28   29.66R WCI  27
PLATTSMOUTH    CLOUDY    37  32  82 NW17      29.66R WCI  27
$$

NEZ044-045-051>053-067-261400-
OMAHA AREA

CITY           SKY/WX    TMP DP  RH WIND       PRES   REMARKS
OMAHA EPPLEY   CLOUDY    37  32  82 NW18G26   29.66R WCI  27
BLAIR          CLOUDY    36  33  88 NW20      29.65R WCI  25
FREMONT        CLOUDY    36  32  87 NW23      29.68S WCI  24
MILLARD        CLOUDY    39  34  82 NW14G23   29.68R WCI  30
OFFUTT AFB     CLOUDY    37  33  83 NW16G24   29.66R WCI  28
PLATTSMOUTH    CLOUDY    37  32  82 NW17      29.66R WCI  27
WAHOO          CLOUDY    37  31  79 NW22G30   29.67F WCI  25
$$




USA.gov is the U.S. government's official web portal to all federal, state and local government web resources and services.